STARLINK-11747

Satellite information

Favourite Embed

Satellite Type and Status

PAYLOADIN ORBIT

Key statistics

Satellite STARLINK-11747 at a glance.

Uptime

29

Days in orbit

Revolutions

≈ 15.8

Per day

Orbit

LEO

Low Earth Orbit

Inclination

43.0

Latest

Satellite identification and parameters

Extended collection of information and parameters for STARLINK-11747.

Object identification

Identified? True

Debris? False

Object name: STARLINK-11747

International designator: 2025-124F

Object number (NORAD): 64322

Object ID (CCSDS): 64322

Country: UNITED STATES OF AMERICA (US)

Current information (Y/N): Y

RCS size: LARGE

Orbital parameters

Period: 91.262 minutes

Inclination: 43.0005 deg

SMA: 6714.604 km

Apoapsis: 339.967 km

Periapsis: 332.972 km

RAAN: 63.748 deg

Eccentricy: 0.0005209

Argument of periapsis: 272.9031 deg

Mean anomaly: 87.1243 deg

Mean motion: 15.77873301 rev/day

Mean motion (dot): 0.00235579 rev/day2

B* drag term: 0.0013178 1/REarth

Two-line elements (TLE)

Creation date: July 8, 2025, 5:26 p.m.

Reference frame: TEME

Reference center: EARTH

Epoch: July 8, 2025, 2:12 a.m. UTC

TLE line 0: 0 STARLINK-11747

TLE line 1: 1 64322U 25124F 25189.09188902 .00235579 00000-0 13178-2 0 9996

TLE line 2: 2 64322 43.0005 63.7480 0005209 272.9031 87.1243 15.77873301 4369

Live tracking on map

Real-time ground track for satellite STARLINK-11747.

In-orbit conjunctions

There are no conjunctions computed for STARLINK-11747, at the moment. Check back to stay up to date, as we update our databases every day.

Go to all conjunctions

Associated space launch

A batch of 23 satellites for the Starlink mega-constellation - SpaceX's project for space-based Internet communication system.

STARLINK-11747 was lifted into orbit during the mission ‘Falcon 9 Block 5 | Starlink Group 12-24’, on board a Falcon 9 space rocket.

The launch took place on June 10, 2025, 1:05 p.m. from Space Launch Complex 40.

For more information about the launch, click the button.

Launch to space Falcon 9 Block 5 | Starlink Group 12-24
Falcon 9 Block 5 | Starlink Group 12-24

Agency: SpaceX

Status: Launch Successful

Launch date: June 10, 2025, 1:05 p.m. UTC

Rocket: Falcon 9

Launch pad: Space Launch Complex 40

Location: Cape Canaveral SFS, FL, USA

...

Latest news about this satellite

News about space launch
Launch Roundup: ULA to launch Kuiper’s second batch of satellites, SpaceX to launch Axiom crew to ISS

SpaceX will launch Axiom Space’s fourth private crewed mission to the International Space Station (ISS)… The post Launch Roundup: ULA to launch Kuiper’s second batch of satellites, SpaceX to launch Axiom crew to ISS appeared first on NASASpaceFlight.com.

News about space launch
Live coverage: SpaceX to launch 23 Starlink satellites on a Falcon 9 rocket from Cape Canaveral

SpaceX will be attempting to land its 460th booster in the midst of the Starlink 12-24 mission. Teams are targeting liftoff from pad 40 at Cape Canaveral Space Force Station at 9:05 a.m. EDT (1305 UTC).


Newsletter sign-up

Weekly statistics, charts and insights to help you stay on top of the space industry.